Location: B�rgermoos
(47.6500°N, 9.0667°E)
Time: 23:06:26
(UTC+00:00)

CSL-04 Rocket - Pass Details

Date: 18 September 2020
Orbit: 806 x 860 km, 98.9° (Epoch: 31 October)

Event Time Altitude Azimuth Distance (km) Brightness Sun altitude
Rises 18:25:41 0° 169° (S) 3,353 6.6 -10.3°
Reaches altitude 10° 18:28:01 10° 172° (S) 2,432 5.9 -10.6°
Maximum altitude 18:33:24 72° 257° (WSW) 885 4.0 -11.5°
Drops below altitude 10° 18:38:55 10° 342° (NNW) 2,485 6.6 -12.4°
Sets 18:41:19 0° 344° (NNW) 3,431 7.3 -12.8°
